Regional Weather Roundup
Issued by NWS

Home | Current Version | Previous Version | Text Only | Print | Product List | Glossary Off
Versions: 1 2 3 4 5 6 7 8 9 10 11 12 13 14 15 16 17 18 19 20 21 22 23 24 25 26 27

000
ASUS45 KBOI 231610
RWRID

IDAHO REGIONAL WEATHER ROUNDUP
NATIONAL WEATHER SERVICE BOISE ID
900 AM MST THU FEB 23 2017

NOTE: "FAIR" INDICATES FEW OR NO CLOUDS BELOW 12000 FEET
WITH NO SIGNIFICANT WEATHER AND/OR OBSTRUCTIONS TO VISIBILITY

IDZ012-014-231700-
SOUTHWEST IDAHO


CITY           SKY/WX    TMP DP  RH WIND       PRES   REMARKS
BOISE          CLOUDY    31  25  78 NW21      29.87R WCI  18
CALDWELL       CLOUDY    33  25  72 W20G28    29.93R WCI  21
MOUNTAIN HOME  PTSUNNY   31  25  78 NW32G40   29.84R WCI  16
$$

IDZ016-017-231700-
SOUTHCENTRAL IDAHO


CITY           SKY/WX    TMP DP  RH WIND       PRES   REMARKS
BURLEY         LGT SNOW  27  23  85 W15G24    29.73R VSB 3/4 WCI  15
JEROME           N/A    N/A N/A N/A MISG      29.75R
TWIN FALLS     SNOW      24  21  88 W31G37    29.75R VSB 1/4 WCI   7
$$

IDZ019>023-231700-
SOUTHEAST IDAHO


CITY           SKY/WX    TMP DP  RH WIND       PRES   REMARKS
IDAHO FALLS    LGT SNOW  27  27 100 SW7       29.67R VSB 3/4 WCI  19
POCATELLO      LGT SNOW  27  24  89 SW16      29.69R FOG     WCI  15
REXBURG        CLOUDY    28  22  78 SE6       29.66R WCI  22
$$

IDZ006-010-011-018-031-032-231700-
CENTRAL IDAHO MOUNTAINS


CITY           SKY/WX    TMP DP  RH WIND       PRES   REMARKS
MCCALL         CLOUDY    24  13  62 NW12G25   29.79R WCI  13
HAILEY         CLOUDY    25  21  86 CALM      29.69R
STANLEY          N/A     20  12  71 N3        29.69R
SALMON         CLOUDY    32  19  59 NE3       29.77R
CHALLIS        CLOUDY    29  19  66 N6        29.71R WCI  23
$$

IDZ002-004-006-007-026-231700-
NORTHERN IDAHO


CITY           SKY/WX    TMP DP  RH WIND       PRES   REMARKS
LEWISTON       PTSUNNY   33  27  78 S5        30.08R WCI  29
LOWELL           N/A     33  31  92 CALM      30.04R
COEUR D`ALENE  FOG       26  25  96 CALM      30.06R VSB 1/4
MULLAN PASS    CLOUDY    20  16  84 NW5       29.84R FOG     WCI  13
$$




USA.gov is the U.S. government's official web portal to all federal, state and local government web resources and services.